Regional Weather Roundup
Issued by NWS

Home | Current Version | Previous Version | Graphics & Text | Print | Product List | Glossary On
Versions: 1 2 3 4 5 6 7 8 9 10 11 12 13 14 15 16 17 18 19 20 21 22 23 24 25 26 27 28 29 30 31 32 33 34 35 36 37 38 39 40 41 42 43 44 45 46 47 48 49 50
000
ASUS43 KMKX 250911
RWRWI

WISCONSIN REGIONAL WEATHER ROUNDUP
NATIONAL WEATHER SERVICE MILWAUKEE/SULLIVAN WI
400 AM CDT THU AUG 25 2016

NOTE: "FAIR" INDICATES FEW OR NO CLOUDS BELOW 12,000 FEET WITH NO
SIGNIFICANT WEATHER AND/OR OBSTRUCTIONS TO VISIBILITY.

WIZ001-002-006>008-014>016-023>028-251000-
NORTHWEST WISCONSIN

CITY           SKY/WX    TMP DP  RH WIND       PRES   REMARKS
SUPERIOR ARPT  CLEAR     56  55  96 SW7       29.94S
ASHLAND        CLEAR     57  54  89 SW9       29.95R
HAYWARD        CLEAR     55  53  93 S5        29.99R
SIREN          CLEAR     60  56  86 W6        30.00S
CUMBERLAND     CLOUDY    57  55  94 W5        30.01S
RICE LAKE      CLOUDY    57  55  92 CALM      30.02R
CHETEK         NOT AVBL
LADYSMITH      CLOUDY    59  56  92 SW5       30.02R
EAU CLAIRE     CLOUDY    63  59  87 CALM      30.00R
MENOMONIE      CLOUDY    64  59  84 W6        30.02R
NEW RICHMOND   CLEAR     58  58  98 S3        30.02S
OSCEOLA        CLEAR     57  57 100 CALM      30.04R
$$

WIZ003>005-009-010-017-018-251000-
NORTH CENTRAL WISCONSIN

CITY           SKY/WX    TMP DP  RH WIND       PRES   REMARKS
MANITOWISH WTR NOT AVBL
ARBOR VITAE    CLEAR     59  57  92 CALM      29.98S
WOODRUFF       CLEAR     59  57  92 CALM      29.98S
RHINELANDER    CLEAR     57  57 100 W7        29.99R
EAGLE RIVER    CLEAR     57  56  97 W5        29.97R
LAND O LAKES   CLEAR     55  55 100 W3        29.97R
PHILLIPS       CLEAR     57  56  99 CALM      29.98S
TOMAHAWK       CLEAR     56  55  94 CALM      30.00R
MEDFORD        CLOUDY    58  58 100 SW3       30.01R
MERRILL        CLOUDY    58  58  99 W3        30.00R
$$

WIZ029-030-035-036-043>047-251000-
CENTRAL WISCONSIN

CITY           SKY/WX    TMP DP  RH WIND       PRES   REMARKS
WAUSAU         CLOUDY    61  58  90 NW8       29.98R
MOSINEE        CLOUDY    59  59 100 W6        30.01R
MARSHFIELD     PTCLDY    60  56  86 NW3       30.00R
STEVENS POINT  PTCLDY    61  57  87 NW6       29.99R
WAUPACA        MOCLDY    66  63  89 W3        29.97R
WAUTOMA        CLOUDY    64  62  93 SW3       29.98R
WISC RAPIDS    MOCLDY    63  59  87 N9        29.99S
CAMP DOUGLAS   CLOUDY    62  60  93 W7        30.00R
$$

WIZ011>013-019>022-031-037>040-048>050-251000-
NORTHEAST WISCONSIN

CITY           SKY/WX    TMP DP  RH WIND       PRES   REMARKS
ANTIGO         CLOUDY    58  57  96 W6        29.99R
SHAWANO        CLOUDY    66  61  84 W7        29.96R
OCONTO         NOT AVBL
STURGEON BAY   CLEAR     67  64  90 W6        29.93S
GREEN BAY      MOCLDY    63  63 100 W5        29.94R
MANITOWOC      PTCLDY    67  65  93 W3        29.95R
APPLETON       MOCLDY    63  63 100 W8        29.96R
CLINTONVILLE   CLOUDY    64  61  88 NW9       29.95R
OSHKOSH        CLOUDY    67  63  87 W6        29.96R
$$

WIZ032>034-041-042-053>061-251000-
SOUTHWEST WISCONSIN

CITY           SKY/WX    TMP DP  RH WIND       PRES   REMARKS
LA CROSSE      MOCLDY    66  32  28 N6        30.01R
SPARTA         MOCLDY    59  59  99 CALM      30.02S
VIROQUA        MOCLDY    62  60  91 W3        30.03R
BOSCOBEL       PTCLDY    67  63  87 CALM      30.01S
PRAIRIE DU CHI CLOUDY    66  62  88 CALM      30.01F
PLATTEVILLE    PTCLDY    68  65  92 NW5       30.01S
$$

WIZ056-057-062-063-064-067-068-251000-
SOUTH CENTRAL WISCONSIN

CITY           SKY/WX    TMP DP  RH WIND       PRES   REMARKS
REEDSBURG      NOT AVBL
BARABOO/DELLS  CLOUDY    65  61  85 NW5       29.99F
LONE ROCK      PTCLDY    67  64  90 W7        30.00R
MINERAL POINT  CLOUDY    68  64  88 NW7       30.01S
MADISON        MOCLDY    68  64  87 NW6       29.97S
MIDDLETON      MOCLDY    67  65  94 NW6       29.99S
WATERTOWN      CLOUDY    70  70 100 NW5       29.97R
MONROE         CLOUDY    72  64  78 W5        29.99R
JANESVILLE     RAIN      72  70  94 CALM      29.97R
$$

WIZ051-052-058>065-066-070>072-251000-
SOUTHEAST WISCONSIN

CITY           SKY/WX    TMP DP  RH WIND       PRES   REMARKS
MILWAUKEE      HVY RAIN  74  70  87 SE7       29.96F
WAUKESHA       CLOUDY    70  68  94 S5        29.98S
MILWAUKEE/TIMM CLOUDY    72  64  78 N5        29.97S
RACINE         LGT RAIN  72  70  93 NE7       29.96F
BURLINGTON     CLOUDY    68  67  98 CALM      29.96F
KENOSHA        RAIN      69  67  93 S8        29.96F FOG
FOND DU LAC    CLOUDY    67  64  90 W6        29.97R
SHEBOYGAN      CLOUDY    69  66  90 NW7       29.96R
WEST BEND      CLOUDY    68  66  94 CALM      29.97S
JUNEAU         CLOUDY    68  65  90 NW5       29.98R
$$

LSZ147-162-251000-
LAKE SUPERIOR

STATION/POSITION TIME  TEMP    WIND        PRES    WAVE
                       AIR SEA DIR/SP/G            HT/PER
                 (UTC) (F)     (DEG/KT/KT) (MB)    (FT/S)
W MID LAKE BUOY  0850   68 68  260/ 16/ 19 1011.1R   3/ 4
DEVILS ISLAND    0800   66     250/ 11/ 14 1012.5S
PORT WING        0800   62     200/  5/  7 1013.9S
SAXON HARBOR     0800   63     200/  8/ 10 1013.5R
$$

LMZ867-665-643>646-251000-
LAKE MICHIGAN

STATION/POSITION TIME  TEMP    WIND        PRES    WAVE
                       AIR SEA DIR/SP/G            HT/PER
                 (UTC) (F)     (DEG/KT/KT) (MB)    (FT/S)
CHAMBERS ISLAND  0800   68     200/  4/  9 1012.5R
S GREEN BAY BUOY 0800   71 72  270/ 12/ 14 1012.7R
N MID LAKE BUOY  0850   70 69  250/ 10/ 10 1011.3R   2/ 6
NORTHPORT PIER   0800   70     270/  6/  9 1012.2R
SISTER BAY       0807   70     300/ 11/ 12   N/A
KEWAUNEE LAKESHO 0800   67     300/  5/  6 1012.8S
SHEBOYGAN LAKESH 0900   71     290/  9/ 11 1013.4R
PORT WASHINGTON  0800   73     310/  2/  5 1014.6S
ATWATER BUOY     0900   62 55  190/  6/ 10   N/A
MILWAUKEE LAKESH 0810   70     120/  2/  3   N/A
S MID LAKE BUOY  0850   75 75  220/ 16/ 17 1013.3R   1/ 3
KENOSHA   LAKESH 0900   71     230/  5/  8 1014.6R
$$

TC  - TEMPERATURE IN CELSIUS
VSB - VISIBILITY IN STATUTE MILES
WCI - WIND CHILL INDEX
HX  - HEAT INDEX




USA.gov is the U.S. government's official web portal to all federal, state and local government web resources and services.